Location: St. Louis
(38.6270°N, 90.1994°W)
Time: 06:54:00
(UTC-06:00)

Transit 2A Rocket - Pass Details

Date: 30 November 2021
Orbit: 584 x 917 km, 66.7° (Epoch: 23 January)

Event Time Altitude Azimuth Distance (km) Brightness Sun altitude
Rises 18:34:30 0° 319° (NW) 3,539 8.8 -21.9°
Reaches altitude 10° 18:37:29 10° 307° (NW) 2,567 8.2 -22.4°
Maximum altitude 18:42:13 25° 254° (WSW) 1,673 7.5 -23.4°
Drops below altitude 10° 18:46:42 10° 201° (SSW) 2,416 7.9 -24.2°
Sets 18:49:26 0° 188° (S) 3,288 8.5 -24.8°
